SL-14 DEB, 45339

Orbit data source: Space-Track

SL-14 DEB, 45339 is space debris in LEO originally from a launch on Thu, 15 Aug 1991 UTC launched from the Plesetsk Missile And Space Complex (PKMTR). Debris objects in space refer to the collection of defunct objects orbiting the Earth. Examples of debris include non-operational satellites, rocket bodies, and fragments generated from explosions, collisions, or faulty payload assembly.

Loading next visibility...
Identifier
45339, 1991-056CD
Orbit
LEO
Country
Flag of CISCIS
Related business
Manufacturer
Unknown
Mission
Spacecraft
Bus & Motor
Unknown
Mass
Unknown
Launch date (UTC)
1991-08-15 (34 years ago)
Launch vehicle
Unknown
Launch site
Plesetsk Missile And Space Complex (PKMTR)
Object type
Payload
Rocket body
Debris
Shape & HBR
Unknown shape, 0.1 m
Radar Cross Section
Small (<0.1 m²)

Expand to show TLE details & history
Last TLE update: 2 days ago

TLE from 2 days ago
0 SL-14 DEB
1 45339U 91056CD  25309.64330917  .00009331  00000-0  95565-2 0  9995
2 45339  82.5030 192.3822 0117989 292.4103  66.4585 13.73273046280377
Epoch: 2025-11-05T15:26Z
TLE epoch observation values (Epoch: 2025-11-05T15:26:21.912Z)
Latitude
-0.0001°
Longitude
-84.32215°
Altitude
956.878 km
Speed
7.39 km/s
True Right ascension
12h 49m 31s
True Declination
0° 00' 00"
Sunlit
Object was in daylight at epoch
Visualization orbit readout
Latitude
Unknown
Longitude
Unknown
Altitude
Unknown
Speed
Unknown
Apparent Right ascension
Unknown
Apparent Declination
Unknown
Sunlit
N/A
Visualization observer readout
Local Sidereal Time
16:06:38
Azimuth
Unknown
Elevation
Unknown
Doppler factor
Unknown
Orbital elements
Apogee altitude
1,071.889 km
Perigee altitude
898.135 km
Semi-major axis
7,363.149 km
Eccentricity
0.0118
Inclination
82.503°
RAAN
192.3822°
Arg. of periapsis
292.4103°
True anomaly
67.70527°
Mean anomaly
66.4585°
Eccentric anomaly
67.08116°
Mean motion
3.43517 °/min
Orbital period
104.8 mins
BSTAR
0.0095565
Loading maneuver chart data...
Computing Atmospheric mass density...
Loading historical data...
Loading historical data...
Loading historical data...
Loading historical data...
Loading historical data...
Loading historical data...
Loading historical data...

Documentation

Showing up to 5 results
|